Voltar ao catálogo

STARLINK-2742

AtivoComunicaçõesVLEO
NORAD 48688·PAYLOAD·🇺🇸 United States

Lançado May 26, 2021 de Cape Canaveral Space Force Station

Loading…

Próximas Passagens (próximas 24 horas)

TLE

AtualizadoSource: CelesTrak SupGP

Época: Sep 14, 2026, 20:49 UTC

1 48688C 21044BC  26257.86784722  .00049762  00000+0  16010-2 0  2575
2 48688  53.1572 264.7948 0001342  84.3843 287.4640 15.31662038    16

Acompanhe STARLINK-2742 em tempo real com AllMySat

Download on the App Store